Showing default

ZHUHAI-1 03E, 44539

Orbit data source: Space-Track

ZHUHAI-1 03E, 44539 is a payload satellite owned by Zhuhai Orbita (CN) in SSO that was launched on Thu, 19 Sep 2019 UTC via a CHANG ZHENG 11 launch vehicle from the Jiuquan Satellite Launch Center, China (JSC). Payloads include a variety of satellites, spacecraft, and rockets equipped with specific instruments for various scientific and technological missions. These include communications satellites like Starlink; space stations such as the ISS; scientific satellites like the Hubble; Earth observation satellites from companies like Planet Labs, Umbra, and HawkEye 360; GPS; miniature CubeSats for education and research; and military/defense satellites.

Loading next visibility...
ZHUHAI-1 03E details
Identifier
44539, 2019-060F
Orbit
SSO
Last TLE update8 hours ago
Origin
Flag of CNZhuhai Orbita (CN / PRC)
ManufacturerHarbin
MissionOperational Commercial Imaging
Bus & MotorOVS-1, Unknown motor
Mass95 kg wet, 95 kg dry
Launch date (UTC)
2019-09-19 (5 years ago)
Launch vehicle
CHANG ZHENG 11
Launch site
Jiuquan Satellite Launch Center, China (JSC)
Object type
Payload
Rocket body
Debris
Shape & HBRBox, Unknown HBR
Radar Cross Section0.375 m², Medium (>0.1 m² and < 1m²)

Expand to show TLE details & history

TLE from 8 hours ago
0 ZHUHAI-1 03E
1 44539U 19060F   24361.30418791  .00031217  00000-0  11790-2 0  9994
2 44539  97.5039 131.6098 0014310 120.0522 240.2138 15.26851692293435
Epoch: 2024-12-26T07:18Z
Definitive object data (Epoch: 2024-12-26T07:18:01.835Z)
Latitude-0.00002°
Longitude-73.18335°
Altitude493.218 km
Speed7.615 km/s
True Right ascension08h 46m 26s
True Declination0° 00' 00"
Sunlit
Object was in full shadow at TLE epoch
Visualization TLE readout
Latitude-48.65327°
Longitude-64.3018°
Altitude513.689 km
Speed7.6 km/s
Apparent Right ascension05h 39m 38s
Apparent Declination-58° 12' 44"
Sunlit
Object is in daylight
Visualization observer readout
Local Sidereal Time14:18:55
Azimuth222.894° SW
Elevation-53.529°
Doppler factor1
Orbital elements
Apogee altitude492.009 km
Perigee altitude472.375 km
Semi-major axis6,860.329 km
Eccentricity0.001431
Inclination97.5039°
RAAN131.6098°
Arg. of periapsis120.0522°
True anomaly240.07161°
Mean anomaly240.2138°
Eccentric anomaly240.14269°
Mean motion3.81967 °/min
BSTAR0.001179
Orbital period94.25 mins
Loading maneuver chart data...
Loading historical data...
Loading historical data...
Loading historical data...
Loading historical data...
Loading historical data...
Loading historical data...
Loading historical data...

ZHUHAI-1 03E Visibility forecast

Observer location: undefined°, undefined

Span
Click to sort rows by Start time (UTC) header in descending order
Start Az.
Max El. time (UTC)
Max El. Az.
Max El.
End time (UTC)
End Az.
6 mins2024-12-26 22:00:59.735Z1.634° NNE2024-12-26 22:03:59.735Z262.81° W39.907°2024-12-26 22:06:59.735Z205.71° SW
5 mins2024-12-27 08:36:59.735Z132.856° SE2024-12-27 08:38:59.735Z61.915° ENE34.191°2024-12-27 08:41:59.735Z2.398° NNE
|